Location: Unspecified
(48.8656°N, 0.0000°E)
Time: 14:05:17
(UTC+00:00)

Transit 2A Rocket - Pass Details

Date: 26 June 2019
Orbit: 588 x 915 km, 66.7° (Epoch: 15 July)

Event Time Altitude Azimuth Distance (km) Brightness Sun altitude
Rises 11:04:33 0° 252° (WSW) 3,540 8.4 62.0°
Reaches altitude 10° 11:07:27 10° 264° (W) 2,585 7.8 62.3°
Maximum altitude 11:12:39 29° 323° (NW) 1,550 6.7 62.6°
Drops below altitude 10° 11:17:38 10° 23° (NNE) 2,464 7.6 63.0°
Sets 11:20:21 0° 35° (NE) 3,349 8.2 63.1°
